TimePST,TemperatureF,Dew PointF,Humidity,Sea Level PressureIn,VisibilityMPH,Wind Direction,Wind SpeedMPH,Gust SpeedMPH,PrecipitationIn,Events,Conditions,WindDirDegrees,DateUTC
1:53 AM,35.1,32.0,89,30.29,4.0,Calm,Calm,-,N/A,,Clear,0,2011-11-08 09:53:00
2:53 AM,35.1,32.0,89,30.29,2.5,Calm,Calm,-,N/A,,Clear,0,2011-11-08 10:53:00
3:34 AM,33.8,30.2,87,30.28,5.0,Calm,Calm,-,0.01,,Clear,0,2011-11-08 11:34:00
3:46 AM,35.6,30.2,81,30.29,2.0,Calm,Calm,-,0.01,,Clear,0,2011-11-08 11:46:00
4:10 AM,32.0,28.4,87,30.29,0.8,Calm,Calm,-,N/A,,Clear,0,2011-11-08 12:10:00
4:22 AM,33.8,30.2,87,30.29,0.8,Calm,Calm,-,N/A,,Mist,0,2011-11-08 12:22:00
4:53 AM,32.0,30.9,96,30.30,0.5,Calm,Calm,-,N/A,Fog,Fog,0,2011-11-08 12:53:00
4:57 AM,32.0,30.2,93,30.29,1.2,Calm,Calm,-,N/A,,Partly Cloudy,0,2011-11-08 12:57:00
5:02 AM,30.2,28.4,93,30.30,0.8,Calm,Calm,-,N/A,,Mist,0,2011-11-08 13:02:00
5:17 AM,32.0,28.4,87,30.30,0.8,Calm,Calm,-,N/A,,Clear,0,2011-11-08 13:17:00
5:24 AM,33.8,28.4,81,30.30,1.2,Calm,Calm,-,N/A,,Clear,0,2011-11-08 13:24:00
5:41 AM,32.0,28.4,87,30.31,2.5,Calm,Calm,-,N/A,,Clear,0,2011-11-08 13:41:00
5:49 AM,33.8,30.2,87,30.31,1.5,Calm,Calm,-,N/A,,Scattered Clouds,0,2011-11-08 13:49:00
5:51 AM,33.8,30.2,87,30.31,0.8,Calm,Calm,-,N/A,,Mist,0,2011-11-08 13:51:00
5:53 AM,33.1,30.9,92,30.32,0.5,Calm,Calm,-,N/A,Fog,Fog,0,2011-11-08 13:53:00
6:01 AM,32.0,30.2,93,30.31,0.2,Calm,Calm,-,N/A,Fog,Fog,0,2011-11-08 14:01:00
6:42 AM,30.2,28.4,93,30.31,0.2,Calm,Calm,-,N/A,Fog,Light Freezing Fog,0,2011-11-08 14:42:00
6:53 AM,32.0,30.0,92,30.32,0.2,Calm,Calm,-,N/A,Fog,Fog,0,2011-11-08 14:53:00
7:53 AM,35.1,34.0,96,30.35,0.2,Calm,Calm,-,N/A,Fog,Fog,0,2011-11-08 15:53:00
8:39 AM,37.4,37.4,100,30.35,0.2,Calm,Calm,-,N/A,Fog,Fog,0,2011-11-08 16:39:00
8:53 AM,39.0,37.9,96,30.36,0.2,Calm,Calm,-,N/A,Fog,Fog,0,2011-11-08 16:53:00
9:18 AM,42.8,39.2,87,30.34,0.8,Calm,Calm,-,N/A,,Overcast,0,2011-11-08 17:18:00
9:26 AM,42.8,39.2,87,30.35,1.2,Calm,Calm,-,N/A,,Overcast,0,2011-11-08 17:26:00
9:40 AM,42.8,41.0,93,30.35,2.5,Calm,Calm,-,N/A,,Mostly Cloudy,0,2011-11-08 17:40:00
9:49 AM,44.6,41.0,87,30.35,2.0,Calm,Calm,-,N/A,,Partly Cloudy,0,2011-11-08 17:49:00
9:53 AM,44.1,42.1,93,30.35,1.8,Calm,Calm,-,N/A,,Partly Cloudy,0,2011-11-08 17:53:00
10:09 AM,46.4,42.8,87,30.34,2.5,Calm,Calm,-,N/A,,Haze,0,2011-11-08 18:09:00
10:53 AM,52.0,42.1,69,30.35,3.0,Calm,Calm,-,N/A,,Haze,0,2011-11-08 18:53:00
11:53 AM,57.0,39.9,53,30.32,6.0,Calm,Calm,-,N/A,,Haze,0,2011-11-08 19:53:00
12:53 PM,57.9,39.9,51,30.30,7.0,WSW,4.6,-,N/A,,Clear,250,2011-11-08 20:53:00
1:53 PM,60.1,39.0,46,30.28,7.0,Calm,Calm,-,N/A,,Clear,0,2011-11-08 21:53:00
3:53 PM,61.0,37.9,42,30.27,8.0,Calm,Calm,-,N/A,,Clear,0,2011-11-08 23:53:00
5:53 PM,48.0,39.0,71,30.30,8.0,Calm,Calm,-,N/A,,Clear,0,2011-11-09 01:53:00
6:53 PM,43.0,37.0,80,30.29,7.0,SSE,3.5,-,N/A,,Clear,150,2011-11-09 02:53:00
7:53 PM,42.1,36.0,79,30.31,6.0,West,3.5,-,N/A,,Haze,260,2011-11-09 03:53:00
9:53 PM,39.9,35.1,83,30.32,4.0,Calm,Calm,-,N/A,,Haze,0,2011-11-09 05:53:00
10:53 PM,39.9,36.0,86,30.32,3.0,Calm,Calm,-,N/A,,Clear,0,2011-11-09 06:53:00
11:53 PM,37.0,33.1,86,30.31,4.0,NW,3.5,-,N/A,,Clear,310,2011-11-09 07:53:00